Regional Weather Roundup
Issued by NWS

Home | Current Version | Previous Version | Graphics & Text | Print | Product List | Glossary On
Versions: 1 2 3 4 5 6 7 8 9 10 11 12 13 14 15 16 17 18 19 20 21 22 23 24 25 26 27 28 29 30 31 32 33 34 35 36 37 38 39 40 41 42 43 44 45 46 47 48 49 50
000
ASUS43 KFSD 061210
RWRSD

WEATHER ROUNDUP FOR SOUTH DAKOTA
NATIONAL WEATHER SERVICE SIOUX FALLS SD
600 AM CST FRI MAR 06 2015

NOTE: "FAIR" INDICATES FEW OR NO CLOUDS BELOW 12,000 FEET WITH NO
SIGNIFICANT WEATHER AND/OR OBSTRUCTIONS TO VISIBILITY.


SDZ001>005-009-010-012>017-061300-
NORTHWEST AND NORTH CENTRAL SOUTH DAKOTA

CITY           SKY/WX    TMP DP  RH WIND       PRES   REMARKS
BUFFALO          N/A     26  15  63 W10       30.00R WCI  16
FAITH            N/A     26  15  63 NW13      30.08R WCI  15
MOBRIDGE       CLEAR     14   9  80 N5        30.04R WCI   6
$$

SDZ012>016-024>037-041>051-057-063-072>074-061300-
SOUTHWEST AND SOUTH CENTRAL SOUTH DAKOTA

CITY           SKY/WX    TMP DP  RH WIND       PRES   REMARKS
RAPID CTY ARPT PTCLDY    26  15  63 W3        30.11R
PIERRE         CLOUDY    27  19  72 W12       30.09R WCI  17
CUSTER         PTCLDY    29  12  49 W6        30.11R WCI  23
ELLSWORTH AFB  PTCLDY    30  15  52 W8        30.10R WCI  23
PHILIP         CLEAR     25  18  74 W12       30.11S WCI  14
PINE RIDGE     MOCLDY    33  22  63 W7        30.15S WCI  27
SPEARFISH      FAIR      36  16  44 W13       30.11R
WINNER         FAIR      32  17  54 SW7       30.11S WCI  26
$$

SDZ004>011-016>023-039-040-061300-
NORTHEAST SOUTH DAKOTA

CITY           SKY/WX    TMP DP  RH WIND       PRES   REMARKS
ABERDEEN       CLEAR     14   9  80 VRB3      30.06R
WATERTOWN      CLEAR      6   1  80 S5        30.03R WCI  -3
SISSETON         N/A     25  13  60 NW14      30.02R WCI  13
$$

SDZ017-020-022-023-036>040-048>070-061300-
SOUTHEAST SOUTH DAKOTA

CITY           SKY/WX    TMP DP  RH WIND       PRES   REMARKS
SIOUX FALLS    PTCLDY    19   9  65 CALM      30.08F
HURON          CLOUDY    20  14  77 CALM      30.07S
CHAMBERLAIN    CLOUDY    28  19  71 CALM      30.10S
MITCHELL       CLOUDY    30  19  63 W7        30.10S WCI  23
YANKTON        CLEAR     23  10  58 CALM      30.13F
$$

ABBREVIATIONS USED IN REMARKS
   TC - TEMPERATURE IN CELSIUS
  WCI - WIND CHILL INDEX
   HX - HEAT INDEX
  VSB - VISIBILITY



USA.gov is the U.S. government's official web portal to all federal, state and local government web resources and services.